User: anonymous
Location: Brno
(49.2000°N, 16.6330°E)
Time: 09:47:29
(UTC+02:00)
Language:

BREEZE M DEB (TANK) - Orbit

View from above orbital plane
View from above orbital plane
View from above satellite
View from above satellite

Ground track
Ground track

The orbit data is extracted from the following two-line orbital elements,

1 28359U 04022B   14211.89913534  .00002763  00000-0  42070-3 0  2296
2 28359 049.5367 010.2017 4710986 059.3150 039.7082 06.11384075220381
Epoch (UTC): 30 July 2014 21:34:45
Eccentricity: 0.4710986
inclination: 49.5367°
perigee height: 304 km
apogee height: 12207 km
right ascension of ascending node: 10.2017°
argument of perigee: 59.3150°
revolutions per day: 6.11384075
mean anomaly at epoch: 39.7082°
orbit number at epoch: 22038

The dashed part of the orbit path shows where the satellite is in the earth's shadow,  

DLR